Location: Kiltepe
(36.4752°N, 30.0120°E)
Time: 09:28:04
(UTC+00:00)

ATLAS 5 CENTAUR R/B - Pass Details

Date: 03 August 2024
Orbit: 411 x 1156 km, 63.3° (Epoch: 14 September)

Event Time Altitude Azimuth Distance (km) Brightness Sun altitude
Rises 21:58:15 0° 323° (NW) 3,113 5.8 -36.3°
Reaches altitude 10° 22:00:26 10° 320° (NW) 2,299 5.0 -36.3°
Enters shadow 22:02:15 23° 314° (NW) 1,666 4.0 -36.3°
